Regional Weather Roundup
Issued by NWS Wakefield, VA

Home | Current Version | Previous Version | Graphics & Text | Print | Product List | Glossary On
Versions: 1 2 3 4 5 6 7 8 9 10 11 12 13 14 15 16 17 18 19 20 21 22 23 24 25 26 27 28 29 30 31 32 33 34 35 36 37 38 39 40 41 42 43 44 45 46 47
000
ASUS41 KAKQ 280215
RWRAKQ

REGIONAL WEATHER ROUNDUP
NATIONAL WEATHER SERVICE WAKEFIELD VA
1000 PM EDT WED MAY 27 2015

Note: "fair" indicates few or no clouds below 12,000 feet with no
significant weather and/or obstructions to visibility. * = Denotes
station may not report precipitation (e.g., rain,snow,etc.),
thunder or fog.

VAZ042-051-052>054-056-280300-
NORTHERN VIRGINIA

CITY           SKY/WX    TMP DP  RH WIND       PRES   REMARKS
WASH NATIONAL  MOCLDY    80  68  66 CALM      30.14R
DULLES         PTCLDY    71  69  93 CALM      30.14R
FORT BELVOIR   MOCLDY    75  69  81 E1        30.14R
QUANTICO       MOCLDY    79  70  74 SW7       30.14R
FREDERICKSBRG* MOCLDY    81  70  69 S5        30.13R
STAFFORD*      MOCLDY    73  67  82 CALM      30.18R
WARRENTON      MOCLDY    71  69  95 CALM      30.14R
CULPEPER*      PTCLDY    69  67  94 CALM      30.15R
MANASSAS*      CLEAR     72  70  94 CALM      30.14R
LEESBURG*      PTCLDY    73  72  94 CALM      30.15R
WINCHESTER     CLEAR     72  64  78 CALM      30.13R
FRONT ROYAL*   FAIR      72  68  88 CALM      30.12R
LURAY*         FAIR      72  70  94 CALM      30.14R
$$

VAZ048-049-060>072-079>083-280300-
CENTRAL AND SOUTH CENTRAL VIRGINIA

CITY           SKY/WX    TMP DP  RH WIND       PRES   REMARKS
RICHMOND       MOCLDY    78  69  73 S14G20    30.16R
CHESTERFIELD*  NOT AVBL
PETERSBURG*    MOCLDY    77  73  88 S7        30.19R THUNDER
HANOVER        CLOUDY    79  67  66 S5        30.17R
TAPPAHANNOCK*  CLOUDY    78  65  63 S7        30.17R
QUINTON*       FAIR      76  69  79 S9        30.18R
CHARLOTTSVILLE PTCLDY    73  63  70 S6        30.15R
GORDONSVILLE*  FAIR      70  66  86 CALM      30.15R
ORANGE*        PTCLDY    72  66  83 CALM      30.17R
LOUISA*        PTCLDY    73  66  78 CALM      30.15R
BUMPASS*       FAIR      77  66  68 S6        30.15R
FARMVILLE*     PTCLDY    73  65  76 CALM      30.16R
CREWE*         FAIR      76  65  69 S3        30.18R
FORT PICKETT*  FAIR      75  66  73 S12G17    30.19R
CHASE CITY*    FAIR      78  70  77 S3        30.19R
CLARKSVILLE*   FAIR      73  68  83 S7        30.19R
SOUTH HILL*    CLOUDY    74  66  75 S12       30.26R
LAWRENCEVILLE* MOCLDY    72  68  88 S8        30.20S
EMPORIA*       TSTM      68  68 100 S3        30.24R
$$

VAZ088>098-280300-
SOUTHEAST VIRGINIA

CITY           SKY/WX    TMP DP  RH WIND       PRES   REMARKS
NORFOLK        CLEAR     76  64  66 S17       30.22R
VIRGINIA BEACH PTCLDY    76  65  68 S10       30.21R
NORFOLK NAVAL  PTCLDY    80  66  62 S8G20     30.23R
WEST POINT*    CLOUDY    75  69  79 S6        30.20S
SALUDA*        FAIR      73  69  88 S7        30.18R
NEWPORT NEWS   LGT RAIN  80  68  66 S12       30.21S
LANGLEY AFB    MOCLDY    77  67  72 S14       30.21R
FORT EUSTIS    CLOUDY    77  68  74 S7        30.18F
WILLIAMSBURG*  CLOUDY    75  72  88 S7        30.20S
HR EXEC AP*    FAIR      73  64  73 S9        30.24R
FRANKLIN*      CLOUDY    75  68  77 S7        30.22R THUNDER
WAKEFIELD      RAIN      72  68  87 VRB5      30.21R FOG
$$

VAZ020-022-025-037-045-280300-
WEST CENTRAL AND SOUTHWEST VIRGINIA

CITY           SKY/WX    TMP DP  RH WIND       PRES   REMARKS
STAUNTON*      PTCLDY    73  64  73 CALM      30.19R
WAYNESBORO*    FAIR      71  63  76 S6        30.19R
HOT SPRINGS VA CLEAR     65  60  83 S6        30.29R
LYNCHBURG      CLEAR     68  63  84 S3        30.20R
DANVILLE       CLEAR     73  64  73 S5        30.19R
SOUTH BOSTON*  FAIR      73  63  69 S5        30.19R
MARTINSVILLE   CLEAR     66  66 100 CALM      30.22R
ROANOKE        CLEAR     75  63  66 S3        30.20R
BLACKSBURG     PTCLDY    68  62  81 CALM      30.26R
DUBLIN*        PTCLDY    69  65  85 SW5       30.25R
MARION*        CLEAR     66  60  81 CALM      30.28S
HILLSVILLE*    CLEAR     66  63  89 S5        30.28R
RICHLANDS*     FAIR      68  59  72 SE3       30.26R
WISE*          CLEAR     66  55  68 CALM      30.27S
ABINGDON*      PTCLDY    70  60  69 CALM      30.24R
$$

MDZ021>025-VAZ099-100-280300-
SOUTHERN MARYLAND AND THE DELMARVA PENINSULA

CITY           SKY/WX    TMP DP  RH WIND       PRES   REMARKS
PATUXENT RIVER MOCLDY    75  69  81 S7        30.15R
BAY BRIDGE APT NOT AVBL
LEONARDTOWN    NOT AVBL
DOVER          CLOUDY    74  66  76 SE3       30.15R
GEORGETOWN     PTCLDY    71  64  78 S10G18    30.19R
EASTON         NOT AVBL
CAMBRIDGE      NOT AVBL
SALISBURY      CLEAR     70  64  81 S9        30.19R
OCEAN CITY     CLEAR     69  63  81 SW15G24   30.21R
WALLOPS ISLAND CLEAR     68  64  87 S15G28    30.22R
ACCOMACK*      PTCLDY    72  68  88 S12G18    30.22R
$$

NCZ012>017-030>032-280300-
NORTH CENTRAL AND EASTERN NORTH CAROLINA

CITY           SKY/WX    TMP DP  RH WIND       PRES   REMARKS
ROANOKE RAPIDS DRIZZLE   70  68  94 S6        30.23S
RALEIGH        CLOUDY    73  70  90 S5        30.21S
ELIZABETH CITY CLEAR     72  65  78 S8        30.24R
AHOSKIE*       CLOUDY    74  67  77 S5        30.23R
EDENTON*       PTCLDY    73  67  80 S9        30.24R
CURRITUCK*     CLEAR     73  63  69 S3        30.25R
KILL DEVIL HLS CLEAR     73  63  71 SW6       30.25R
MANTEO         CLEAR     73  64  73 SW16      30.26R
CAPE HATTERAS  PTCLDY    72  60  66 SW12      30.27R
TARBORO*       MOCLDY    73  70  89 W5        30.24R
GOLDSBORO      MOCLDY    75  68  79 S1        30.21R
WASHINGTON     MOCLDY    73  66  78 S3        30.25R
GREENVILLE     CLOUDY    75  68  78 S7        30.24S
NEW BERN       MOCLDY    72  65  78 SE5       30.26R
WILMINGTON     PTCLDY    73  66  78 S6        30.24R
$$

VAZ048-280300-
ELSEWHERE

CITY           SKY/WX    TMP DP  RH WIND       PRES   REMARKS
HARRISBURG PA  PTCLDY    72  68  87 SE6       30.13R
BALTIMORE      MOCLDY    75  68  78 S7        30.14R
ANNAPOLIS      MOCLDY    74  68  81 SE9       30.15R
ANDREWS AFB    CLOUDY    74  68  82 SE3       30.14R
PHILADELPHIA   MOCLDY    74  70  87 S6        30.16R
HENDERSON NC   CLOUDY    70  67  90 S7        30.21R
GREENSBORO     MOCLDY    74  66  76 S10       30.21R
ROCKY MOUNT    CLOUDY    72  70  93 CALM      30.23R
$$

VAZ100-280300-
MARINE

STATION/POSITION TIME  TEMP    WIND        PRES    WAVE   SWELL
                       AIR SEA DIR/SP/G            HT/PER HT/PER
                 (UTC) (F)     (DEG/KT/KT) (MB)    (FT/S) (FT/S)
BRANDYWINE LGT   0100   68 65  190/ 11/ 14 1021.5R
CAPE MAY NJ      0100   66 71  160/ 11/ 15 1021.4R
LEWES DE         0100   73 64  200/  8/ 13 1021.5R
15NM E FENWICK I 0150   66 62              1022.6R   4/ 5
OCEAN-CITY-INLET 0100   66 64  220/ 13/ 16 1022.3R
WACHAPREAGUE VA  0100   72 78  200/ 15/ 21 1022.3R
THOMAS POINT MD  0200   72 68  170/ 12/ 12 1021.4R
GOOSES REEF MD   0200   72 69  170/ 14/ 16 1021.8R   1/ 2
COVE POINT MD    0100   72     180/ 17/ 19 1021.1F
SOLOMONS ISLAND  0100      73                N/A
BISHOPS HEAD MD  0100   75 75  170/ 17/ 22 1020.6R
PINEY POINT MD   0100          180/  9/ 10   N/A
CAMBRIDGE MD     0100   75 71  170/  5/  8 1020.8R
LEWISETTA VA     0100   76 71              1020.6R
RAPPAHANNOCK LGT 0100          160/ 15/ 16 1022.4R
STINGRAY PT      0200   74 72  160/ 10/ 12 1021.8R   2/ 3
YORK RVR RNG VA  0100   78     210/ 17/ 19 1021.4R
YORKTOWN VA      0100   79 72  210/ 14/ 19 1021.9R
JAMESTOWN VA     0200   73 76  200/ 10/ 10 1021.4R
DOMINION TERM VA 0100   77     200/ 17/ 21 1022.0R
KIPTOPEKE VA     0100      79  170/ 14/ 17   N/A
CHES BAY BRIDGE  0100   76 72  180/ 14/ 17 1021.8R
CAPE HENRY VA    0100   76     180/ 12/ 19 1021.1R
CHESAPEAKE LGHT  0100   68     180/ 24/ 25 1022.8R
WILLOUBY STN VA  0100   77     200/ 19/ 21 1023.0R
CAPE HENRY BUOY  0128      63                N/A     3/ 5
1ST LANDING BUOY 0200      71              1022.9R
CAPE CHARLES BUO 0126      65                N/A     3/ 5   2/ 7
OFFSHORE WE BUOY 0111      65                N/A     4/ 4   2/12
64NM E OF VA BCH 0150   66 64  170/ 10/ 10 1024.1R   2/ 7   2/ 7
DUCK PIER NC     0100   73 57  190/ 14/ 20 1022.6R
44100 DUCK FRF   0124      64                N/A     2/ 7
44056 DUCK FRF   0111      60                N/A     2/ 5
OREGON INLET NC  0100   74 78  190/ 16/ 19 1023.8R
HATTERAS NC      0100   74 76  180/  7/ 12 1023.7R
DIAMOND SHLS NC  0150   74 77  180/ 14/ 17 1024.7R   3/ 7   2/ 7
CAPE LOOKOUT NC  0200   74     180/ 10/ 11 1024.3R
$$


USA.gov is the U.S. government's official web portal to all federal, state and local government web resources and services.